Zurück zum Katalog

THAICOM 8

AktivKommunikationGEO
NORAD 41552·PAYLOAD·🇹🇭 Thailand

Gestartet May 27, 2016 von Cape Canaveral Space Force Station

Loading…

TLE

AktuellSource: Space-Track

Epoche: Sep 14, 2026, 14:10 UTC

1 41552U 16031A   26257.59070108 -.00000129  00000-0  00000-0 0  9993
2 41552   0.0719  24.4141 0001149  79.4582 180.8686  1.00270933 37611

Verfolge THAICOM 8 in Echtzeit mit AllMySat

Download on the App Store